Regional Weather Roundup
Issued by NWS

Home | Current Version | Previous Version | Graphics & Text | Print | Product List | Glossary Off
Versions: 1 2 3 4 5 6 7 8 9 10 11 12 13 14 15 16 17 18 19 20 21 22 23 24 25 26 27 28 29 30 31 32 33 34 35 36 37 38 39 40 41 42 43 44 45 46 47 48 49 50

000
ASUS43 KMKX 102110
RWRWI

WISCONSIN REGIONAL WEATHER ROUNDUP
NATIONAL WEATHER SERVICE MILWAUKEE/SULLIVAN WI
300 PM CST WED FEB 10 2016

NOTE: "FAIR" INDICATES FEW OR NO CLOUDS BELOW 12,000 FEET WITH NO
SIGNIFICANT WEATHER AND/OR OBSTRUCTIONS TO VISIBILITY.

WIZ001-002-006>008-014>016-023>028-102200-
NORTHWEST WISCONSIN

CITY           SKY/WX    TMP DP  RH WIND       PRES   REMARKS
SUPERIOR ARPT  SUNNY     11  -5  49 CALM      30.15R
ASHLAND        PTSUNNY   11  -2  56 N3        30.11S
HAYWARD        PTSUNNY   11  -4  51 VRB3      30.07R
SIREN          SUNNY      9  -4  56 N3        30.12R
CUMBERLAND     SUNNY      9  -6  52 CALM      30.07R
RICE LAKE      SUNNY     10  -2  58 NW6       30.09S WCI   0
CHETEK         SUNNY     10  -2  59 W3        30.08R
LADYSMITH      PTSUNNY   12  -3  50 NW6       30.06R WCI   3
EAU CLAIRE     SUNNY     10  -4  53 N7        30.09R WCI  -1
MENOMONIE      SUNNY     16  -4  40 N5        30.10R WCI   9
NEW RICHMOND   SUNNY      9  -5  52 CALM      30.11R
OSCEOLA        SUNNY     10  -3  54 N5        30.15R WCI   2
$$

WIZ003>005-009-010-017-018-102200-
NORTH CENTRAL WISCONSIN

CITY           SKY/WX    TMP DP  RH WIND       PRES   REMARKS
MANITOWISH WTR CLOUDY     7  -2  67 N7        29.99R WCI  -5
ARBOR VITAE    CLOUDY    11   0  61 N9G17     29.98R WCI  -2
WOODRUFF       CLOUDY    11   0  61 N9G17     29.98R WCI  -2
RHINELANDER    MOSUNNY    9  -5  53 N8        29.97R WCI  -3
EAGLE RIVER    PTSUNNY    8  -5  55 N14       29.97R WCI  -8
LAND O LAKES   CLOUDY     7  -3  64 N13       29.98R WCI  -9
PHILLIPS       CLOUDY     8  -3  61 NW8       30.01R WCI  -4
TOMAHAWK       PTSUNNY   11  -4  49 N6        29.99R WCI   1
MEDFORD        MOSUNNY   11  -3  52 NW6       29.99R WCI   1
MERRILL        MOSUNNY   12  -4  48 N8        30.00R WCI   0
$$

WIZ029-030-035-036-043>047-102200-
CENTRAL WISCONSIN

CITY           SKY/WX    TMP DP  RH WIND       PRES   REMARKS
WAUSAU         SUNNY     14  -4  44 NW9       29.98S WCI   2
MOSINEE        SUNNY     10  -2  56 N6        30.00R WCI   1
MARSHFIELD     SUNNY     11  -4  51 N14       30.00S WCI  -5
STEVENS POINT  MOSUNNY   11  -4  50 NW8       30.01S WCI  -1
WAUPACA        SUNNY     18  -4  38 N7        30.02R WCI   8
WAUTOMA        MOSUNNY   14  -3  47 N8        30.03S WCI   3
WISC RAPIDS    SUNNY     12  -3  51 N7G16     30.04R WCI   1
CAMP DOUGLAS   PTSUNNY   14   0  52 N9        30.03S WCI   2
$$

WIZ011>013-019>022-031-037>040-048>050-102200-
NORTHEAST WISCONSIN

CITY           SKY/WX    TMP DP  RH WIND       PRES   REMARKS
ANTIGO         SUNNY     10  -4  53 N9        29.96R WCI  -3
SHAWANO        SUNNY     17  -6  35 N9        30.01S WCI   6
OCONTO         SUNNY     15  -6  40 N10       30.01R WCI   2
STURGEON BAY   MOSUNNY   14  -6  41 N16       30.00S WCI  -2
GREEN BAY      SUNNY     13  -5  44 NW13      30.02R WCI  -2
MANITOWOC      SUNNY     14  -2  49 NW12      30.02R WCI   0
APPLETON       MOSUNNY   12  -8  40 NW10      29.99S WCI  -1
CLINTONVILLE   SUNNY     16  -6  38 N9        30.01S WCI   4
OSHKOSH        MOSUNNY   13  -4  46 NW10      30.01R WCI   0
$$

WIZ032>034-041-042-053>061-102200-
SOUTHWEST WISCONSIN

CITY           SKY/WX    TMP DP  RH WIND       PRES   REMARKS
LA CROSSE      SUNNY     11  -2  56 NW9       30.09S WCI  -2
SPARTA         SUNNY     13  -1  52 W6        30.07R WCI   4
VIROQUA        SUNNY     10  -2  57 NW7       30.02R WCI   0
BOSCOBEL       MOSUNNY   17  -2  43 N8        30.07S WCI   7
PRAIRIE DU CHI MOSUNNY   15  -3  43 W7        30.07R WCI   5
PLATTEVILLE    CLOUDY    15   1  55 W6        30.03S WCI   6
$$

WIZ056-057-062-063-064-067-068-102200-
SOUTH CENTRAL WISCONSIN

CITY           SKY/WX    TMP DP  RH WIND       PRES   REMARKS
REEDSBURG      SUNNY     13  -1  54 W8        30.03S WCI   1
BARABOO/DELLS  SUNNY     14  -3  47 NW8       30.02S WCI   3
LONE ROCK      NOT AVBL
MINERAL POINT  SUNNY     18  -2  41 NW8       30.01R WCI   7
MADISON        PTSUNNY   13  -2  51 NW10      30.03R WCI   0
MIDDLETON      SUNNY     16   0  50 NW6       30.03R WCI   7
WATERTOWN      CLOUDY    13   1  58 N8        30.02R WCI   2
MONROE         SUNNY     16   1  53 NW7       30.00S WCI   6
JANESVILLE     PTSUNNY   18   3  53 NW12G17   30.02S WCI   5
$$

WIZ051-052-058>065-066-070>072-102200-
SOUTHEAST WISCONSIN

CITY           SKY/WX    TMP DP  RH WIND       PRES   REMARKS
MILWAUKEE      PTSUNNY   14  -2  49 NW10      30.02R WCI   1
WAUKESHA       CLOUDY    10  -2  56 NW12      30.01R WCI  -4
MILWAUKEE/TIMM MOSUNNY   12  -4  48 NW12      30.02R WCI  -2
RACINE         PTSUNNY   14  -2  49 NW9       30.03R WCI   2
BURLINGTON     CLOUDY    13   0  55 NW10      30.02R WCI   0
KENOSHA        PTSUNNY   13   1  59 NW10      30.01R WCI   0
FOND DU LAC    MOSUNNY   13  -3  49 N8        30.02R WCI   2
SHEBOYGAN      SUNNY     12  -4  48 N14       30.01R WCI  -3
WEST BEND      MOSUNNY   14  -2  48 NW12G17   30.01R WCI   0
JUNEAU         CLOUDY    11   0  59 NW10      30.02S WCI  -2
$$

LSZ147-162-102200-
LAKE SUPERIOR

STATION/POSITION TIME  TEMP    WIND        PRES    WAVE
                       AIR SEA DIR/SP/G            HT/PER
                 (UTC) (F)     (DEG/KT/KT) (MB)    (FT/S)
DEVILS ISLAND    2100    8     350/  7/ 10 1022.1R
SAXON HARBOR     2000   11                 1019.0
$$

LMZ867-665-643>646-102200-
LAKE MICHIGAN

STATION/POSITION TIME  TEMP    WIND        PRES    WAVE
                       AIR SEA DIR/SP/G            HT/PER
                 (UTC) (F)     (DEG/KT/KT) (MB)    (FT/S)
CHAMBERS ISLAND  2000   16     300/ 13/ 23 1015.6R
ALGOMA LAKESHORE 2011          340/ 11/ 15   N/A
KEWAUNEE LAKESHO 2000   13     310/ 12/ 16 1014.9R
SHEBOYGAN LAKESH 2100   12     340/ 14/ 16 1018.2R
PORT WASHINGTON  2040   13     320/ 10/ 16 1017.6R
MILWAUKEE LAKESH 2010   13     300/ 13/ 16   N/A
KENOSHA   LAKESH 2100   14     290/ 11/ 14 1016.6R
$$

TC  - TEMPERATURE IN CELSIUS
VSB - VISIBILITY IN STATUTE MILES
WCI - WIND CHILL INDEX
HX  - HEAT INDEX




USA.gov is the U.S. government's official web portal to all federal, state and local government web resources and services.